Weather History for York, PA

Change the Weather History Date:

Sunday, April 21, 2013

  Actual Average Record
Temperature  
Mean Temperature 40 °F -  
Max Temperature 52 °F 0 °F 78 °F (2012)
Min Temperature 28 °F - 28 °F (1999)
Degree Days  
Heating Degree Days 26    
Growing Degree Days 0 (Base 50)    
Moisture  
Dew Point 24 °F    
Average Humidity 52    
Maximum Humidity 85    
Minimum Humidity 33    
Precipitation  
Precipitation 0.00 in - - ()
Sea Level Pressure  
Sea Level Pressure 30.54 in    
Wind  
Wind Speed 5 mph (NNE)    
Max Wind Speed 12 mph    
Max Gust Speed 18 mph    
Visibility 10 miles    
Events      
Averages and records for this station are not official NWS values.
T = Trace of Precipitation, MM = Missing Value Source: NWS Daily Summary

Daily Weather History Graph

Daily Weather History Graph

Search for Another Location

Airport:

Trip Planner

Search our weather history database for the weather conditions in past years. The results will help you decide how hot, cold, wet, or windy it might be!

Date:

Astronomy

Apr. 21, 2013 Rise Set
Actual Time 6:20 AM EDT 7:52 PM EDT
Civil Twilight 5:52 AM EDT 8:20 PM EDT
Nautical Twilight 5:18 AM EDT 8:55 PM EDT
Astronomical Twilight 4:41 AM EDT 9:31 PM EDT
Moon 3:35 PM EDT (4/21) 3:41 AM EDT (4/21)
Length of Visible Light 14h 28m
Length of Day
13h 31m
Waxing Gibbous, 79% of the Moon is Illuminated
Apr 21
Waxing Gibbous
Apr 25
Full
May 2
Last Quarter
May 9
New
May 18
First Quarter

Hourly Weather History & Observations

Time (EDT) Temp. Windchill Dew Point Humidity Pressure Visibility Wind Dir Wind Speed Gust Speed Precip Events Conditions
12:53 AM 37.0 °F 32.4 °F 26.1 °F 65% 30.38 in 10.0 mi WNW 5.8 mph - N/A   Clear
1:53 AM 37.9 °F 32.7 °F 24.1 °F 57% 30.40 in 10.0 mi NW 6.9 mph - N/A   Clear
2:53 AM 37.9 °F - 21.0 °F 51% 30.43 in 10.0 mi Calm Calm - N/A   Clear
3:53 AM 35.1 °F 32.2 °F 21.0 °F 57% 30.45 in 10.0 mi NNW 3.5 mph - N/A   Clear
4:53 AM 34.0 °F - 19.9 °F 56% 30.47 in 10.0 mi Calm Calm - N/A   Clear
5:53 AM 30.0 °F - 21.9 °F 72% 30.51 in 10.0 mi Calm Calm - N/A   Clear
6:53 AM 28.9 °F - 24.1 °F 82% 30.54 in 10.0 mi Calm Calm - N/A   Clear
7:53 AM 37.0 °F 31.6 °F 21.0 °F 52% 30.57 in 10.0 mi North 6.9 mph - N/A   Clear
8:53 AM 39.9 °F 33.9 °F 19.0 °F 43% 30.58 in 10.0 mi NNE 9.2 mph - N/A   Clear
9:53 AM 42.1 °F 35.7 °F 19.0 °F 40% 30.60 in 10.0 mi NNE 11.5 mph 18.4 mph N/A   Clear
10:53 AM 44.1 °F 39.0 °F 19.0 °F 37% 30.61 in 10.0 mi NNW 9.2 mph - N/A   Clear
11:53 AM 46.0 °F 41.9 °F 19.9 °F 35% 30.61 in 10.0 mi NE 8.1 mph - N/A   Clear
12:53 PM 48.0 °F - 23.0 °F 37% 30.59 in 10.0 mi ENE 8.1 mph - N/A   Clear
1:53 PM 48.9 °F - 21.9 °F 35% 30.58 in 10.0 mi Calm Calm - N/A   Clear
2:53 PM 50.0 °F - 23.0 °F 35% 30.56 in 10.0 mi Variable 6.9 mph - N/A   Clear
3:53 PM 51.1 °F - 23.0 °F 33% 30.55 in 10.0 mi East 8.1 mph - N/A   Clear
4:53 PM 51.1 °F - 23.0 °F 33% 30.54 in 10.0 mi NE 9.2 mph - N/A   Clear
5:53 PM 50.0 °F - 25.0 °F 38% 30.54 in 10.0 mi ESE 6.9 mph - N/A   Clear
6:53 PM 48.9 °F - 24.1 °F 38% 30.56 in 10.0 mi ESE 6.9 mph - N/A   Clear
7:53 PM 46.0 °F - 26.1 °F 46% 30.56 in 10.0 mi Calm Calm - N/A   Clear
8:53 PM 39.0 °F - 30.9 °F 73% 30.57 in 10.0 mi Calm Calm - N/A   Clear
9:53 PM 36.0 °F - 30.9 °F 82% 30.58 in 10.0 mi Calm Calm - N/A   Clear
10:53 PM 34.0 °F - 30.0 °F 85% 30.58 in 10.0 mi Calm Calm - N/A   Clear
11:53 PM 37.0 °F - 30.0 °F 76% 30.59 in 10.0 mi Calm Calm - N/A   Clear